{"data":{"norad_id":56801,"epoch":"2026-05-25T02:39:20.503008Z","epoch_age_seconds":61438,"freshness":"FRESH","line1":"1 56801U 23078AL  26145.11065397  .00000474  00000+0  47523-4 0  9999","line2":"2 56801  69.9987 131.6512 0003719 269.0818  90.9915 14.98328637164626","mean_motion":14.98328637,"eccentricity":0.0003719,"inclination_deg":69.9987,"raan_deg":131.6512,"arg_perigee_deg":269.0818,"mean_anomaly_deg":90.9915,"bstar":4.7523e-5,"rev_number":16462,"period_min":96.107086552334,"perigee_km":569.47532760899,"apogee_km":574.64488421637,"semimajor_km":6950.1971059127,"source":"CELESTRAK","updated_at":"2026-05-25T13:38:18.158482Z"}}